Home   Weather   Manaus   Past weeks

Flag for Brazil Past Weather in Manaus, Amazonas, Brazil — Yesterday and Last 2 Weeks

75 °F

Partly cloudy.

Feels Like: 75 °F
Forecast: 76 / 90 °F
Wind: 3 mph from Southwest

Location: Manaus Aeroporto

Current Time: Oct 28, 2016 at 2:42:00 AM

Latest Report: Oct 28, 2016 at 12:00 AM

Visibility: N/A

Pressure: 29.83 "Hg

Humidity: 83%

Dew Point: 70 °F

Location of ManausLocation

Past Weather in Manaus — Graph


Manaus Temperature Yesterday

Maximum temperature yesterday: 93 °F (at 2:00 PM)
Minimum temperature yesterday: 75 °F (at 10:00 PM)
Average temperature yesterday: 82 °F

High & Low Weather Summary for the Past Weeks

High99 °F (Oct 21, 3:00 PM)94% (Oct 23, 8:00 AM)29.95 "Hg (Oct 23, 8:00 AM)
Low75 °F (Oct 23, 8:00 AM)37% (Oct 20, 12:00 PM)29.65 "Hg (Oct 26, 4:00 PM)
Average85 °F68%29.81 "Hg
* Reported Oct 13 12:00 AM — Oct 28 12:00 AM, Manaus, Weather by CustomWeather, © 2016

Note: Actual official high and low records may vary slightly from our data, if they occured in-between our weather recording intervals... More about our weather records


Manaus Weather History for the Previous 24 Hours

Scroll right to see more
Time TempWeatherWind HumidityBarometerVisibility
12:00 AM
Fri, Oct 28
75 °FPartly cloudy.3 mph83%29.83 "HgN/A
11:00 PM
Thu, Oct 27
75 °FPassing clouds.6 mph83%29.86 "HgN/A
10:00 PM75 °FLight rain. Passing clouds.7 mph89%29.86 "HgN/A
8:00 PM77 °FLight rain. Partly cloudy.6 mph89%29.80 "HgN/A
7:00 PM79 °FLight rain. Passing clouds.3 mph84%29.77 "HgN/A
6:00 PM79 °FPartly cloudy.5 mph84%29.74 "HgN/A
5:00 PM79 °FBroken clouds.5 mph84%29.71 "HgN/A
4:00 PM81 °FThunderstorms. Partly sunny.8 mph79%29.68 "Hg6 mi
3:00 PM84 °FThunderstorms. Partly sunny.13 mph62%29.71 "Hg6 mi
2:00 PM93 °FScattered showers. Scattered clouds.3 mph53%29.68 "HgN/A
1:00 PM90 °FScattered clouds.3 mph63%29.74 "HgN/A
12:00 PM88 °FBroken clouds.3 mph66%29.80 "HgN/A
11:00 AM88 °FBroken clouds.3 mph66%29.83 "HgN/A
10:00 AM86 °FScattered clouds.5 mph75%29.83 "HgN/A
9:00 AM82 °FBroken clouds.3 mph84%29.86 "HgN/A
8:00 AM81 °FPartly sunny.3 mph89%29.83 "HgN/A
7:00 AM79 °FPartly sunny.5 mph89%29.80 "HgN/A
6:00 AM79 °FBroken clouds.6 mph89%29.77 "HgN/A
5:00 AM79 °FPassing clouds.8 mph84%29.74 "HgN/A
4:00 AM79 °FPassing clouds.7 mph84%29.74 "HgN/A
3:00 AM81 °FPassing clouds.8 mph79%29.74 "HgN/A
2:00 AM81 °FPassing clouds.9 mph79%29.74 "HgN/A
Weather by CustomWeather, © 2016

See weather overviewHow to use our weather pages